Western Head, Nova Scotia

10:26 PM ADT on March 29, 2017 (GMT -0300)
Western Head

Weather History for CWWE - January, 2013

Change the Weather History Date:

Wednesday, January 9, 2013

  Actual Average Record
Temperature  
Mean Temperature 34 °F -  
Max Temperature 41 °F - - ()
Min Temperature 27 °F - - ()
Degree Days  
Heating Degree Days 31    
Moisture  
Dew Point 31 °F    
Average Humidity 85    
Maximum Humidity 96    
Minimum Humidity 67    
Precipitation  
Precipitation 0.00 in - - ()
Sea Level Pressure  
Sea Level Pressure 30.28 in    
Wind  
Wind Speed 7 mph ()    
Max Wind Speed 20 mph    
Max Gust Speed -    
T = Trace of Precipitation, MM = Missing Value Source: Averaged Metar Reports

Daily Weather History Graph

Daily Weather History Graph

Search for Another Location

Airport or City:

Trip Planner

Search our weather history database for the weather conditions in past years. The results will help you decide how hot, cold, wet, or windy it might be!

Date:

Astronomy

Jan. 09, 2013 Rise Set
Actual Time 7:52 AM AST 4:59 PM AST
Civil Twilight 7:19 AM AST 5:32 PM AST
Nautical Twilight 6:43 AM AST 6:08 PM AST
Astronomical Twilight 6:09 AM AST 6:42 PM AST
Moon 5:27 AM AST (1/9) 2:56 PM AST (1/9)
Length of Visible Light 10h 12m
Length of Day
9h 07m
Waning Crescent, 7% of the Moon is Illuminated
Jan 9
Waning Crescent
Jan 11
New
Jan 18
First Quarter
Jan 27
Full
Feb 3
Last Quarter

Hourly Weather History & Observations

Time (AST) Temp. Windchill Dew Point Humidity Pressure Visibility Wind Dir Wind Speed Gust Speed Precip Events Conditions
12:00 AM 30.9 °F 25.2 °F 29.3 °F 94% 30.31 in - WNW 5.8 mph - N/A   Unknown
1:00 AM 30.4 °F 25.6 °F 28.8 °F 94% 30.31 in - WNW 4.6 mph - N/A   Unknown
2:00 AM 31 °F - 28 °F 86% 30.32 in - West 4.6 mph - -  
2:00 AM 30.6 °F 25.8 °F 28.4 °F 92% 30.32 in - West 4.6 mph - N/A   Unknown
3:00 AM 28.4 °F 22.2 °F 26.4 °F 92% 30.34 in - West 5.8 mph - N/A   Unknown
4:00 AM 27.9 °F 20.6 °F 25.5 °F 91% 30.36 in - WNW 6.9 mph - N/A   Unknown
5:00 AM 29 °F - 26 °F 83% 30.36 in - WNW 6.9 mph - -  
5:00 AM 28.8 °F 21.7 °F 25.9 °F 89% 30.36 in - WNW 6.9 mph - N/A   Unknown
6:00 AM 28.6 °F 20.7 °F 26.1 °F 90% 30.36 in - WNW 8.1 mph - N/A   Unknown
7:00 AM 28.4 °F 20.4 °F 25.9 °F 90% 30.36 in - WNW 8.1 mph - N/A   Unknown
8:00 AM 29 °F - 26 °F 84% 30.39 in - NW 8.1 mph - -  
8:00 AM 28.6 °F 20.7 °F 26.1 °F 90% 30.39 in - NW 8.1 mph - N/A   Unknown
9:00 AM 30.2 °F 24.3 °F 27.5 °F 90% 30.41 in - WNW 5.8 mph - N/A   Unknown
10:00 AM 34.0 °F 29.8 °F 29.8 °F 85% 30.43 in - NW 4.6 mph - N/A   Unknown
11:00 AM 38 °F - 32 °F 70% 30.42 in - West 2.3 mph - -  
11:00 AM 38.5 °F - 31.6 °F 76% 30.42 in - West 2.3 mph - N/A   Unknown
12:00 PM 39.4 °F 36.1 °F 31.6 °F 74% 30.38 in - SSE 4.6 mph - N/A   Unknown
1:00 PM 39.9 °F 34.5 °F 31.1 °F 71% 30.35 in - South 8.1 mph - N/A   Unknown
2:00 PM 38 °F - 31 °F 67% 30.33 in - South 9.2 mph - -  
2:00 PM 38.3 °F 31.9 °F 30.9 °F 75% 30.33 in - South 9.2 mph - N/A   Unknown
3:00 PM 38.3 °F 30.5 °F 31.6 °F 77% 30.28 in - South 12.7 mph - N/A   Unknown
4:00 PM 38.3 °F 30.1 °F 32.9 °F 81% 30.29 in - SSW 13.8 mph - N/A   Unknown
5:00 PM 38 °F - 34 °F 78% 30.23 in - South 10.4 mph - -  
6:00 PM 39.4 °F 30.7 °F 35.4 °F 86% 30.18 in - South 16.1 mph - N/A   Unknown
7:00 PM 40.5 °F 31.2 °F 37.4 °F 89% 30.15 in - South 19.6 mph - N/A   Unknown
8:00 PM 41 °F - 39 °F 88% 30.11 in - South 17.3 mph - -  
8:00 PM 41.2 °F 32.7 °F 38.7 °F 91% 30.11 in - South 17.3 mph - N/A   Unknown
10:00 PM 41.5 °F 33.2 °F 39.7 °F 93% 29.98 in - South 17.3 mph - N/A   Unknown
11:00 PM 41 °F - 40 °F 96% 29.92 in - South 15.0 mph - -  
11:00 PM 41.4 °F 33.6 °F 40.3 °F 96% 29.92 in - South 15.0 mph - N/A   Unknown